Weather observations for the past three days for
Brunswick, Malcolm McKinnon Airport
Metric (Imperial)
Date Time (edt) Wind (kph) Vis. (km) Weather Sky Cond. Temperature (ºC) Relative Humidity Wind Chill (°C) Heat Index (°C) Pressure Precipitation (cm)
Air Dwpt 6 hour altimeter (cm) sea level (mb) 1 hr 3 hr 6 hr
Max. Min.
06 00:55 S 17 16.09 Fair CLR 23 15 61% 76.23 0.0
06 00:35 S 11 G 20 16.09 Fair CLR 22 14 61% 76.23 0.0
06 00:15 S 13 G 22 16.09 Mostly Cloudy BKN055 23 14 57% 76.23 0.0
05 23:55 S 11 16.09 Overcast OVC055 23 13 53% 76.23 0.0
05 23:35 S 15 16.09 Mostly Cloudy BKN060 22 13 57% 76.25 0.0
05 23:15 S 13 16.09 A Few Clouds FEW060 22 13 57% 76.25 0.0
05 22:55 SE 15 16.09 Fair CLR 22 12 53% 76.23 0.0
05 22:35 SE 15 16.09 Fair CLR 22 11 50% 76.23 0.0
05 22:15 SE 15 16.09 Fair CLR 22 11 50% 76.2 0.0
05 21:55 SE 11 G 24 16.09 Fair CLR 22 11 50% 76.2 0.0
05 21:35 SE 15 16.09 Fair CLR 22 12 53% 76.17 0.0
05 21:15 SE 20 16.09 Fair CLR 22 12 53% 76.17 0.0
05 20:55 SE 19 16.09 Fair CLR 22 12 53% 76.17 0.0
05 20:35 SE 19 16.09 Fair CLR 22 12 53% 76.17 0.0
05 20:15 SE 17 16.09 Fair CLR 23 11 47% 76.15 0.0
05 19:55 SE 17 16.09 Fair CLR 22 11 50% 76.15 0.0
05 19:35 SE 17 16.09 Fair CLR 23 12 50% 76.17 0.0
05 19:15 SE 19 16.09 Fair CLR 23 13 53% 76.15 0.0
05 18:55 SE 22 16.09 Fair CLR 24 12 47% 25 76.17 0.0
05 18:35 SE 19 G 28 16.09 Fair CLR 24 13 50% 25 76.17 0.0
05 18:15 SE 22 16.09 Fair CLR 24 13 50% 25 76.15 0.0
05 17:55 SE 22 16.09 Fair CLR 24 13 50% 25 76.15 0.0
05 17:35 SE 22 G 31 16.09 Fair CLR 24 13 50% 25 76.17 0.0
05 17:15 SE 24 16.09 Fair CLR 25 14 51% 26 76.17 0.0
05 16:55 SE 22 G 35 16.09 Fair CLR 25 14 51% 26 76.17 0.0
05 16:35 SE 22 G 31 16.09 Fair CLR 25 14 51% 26 76.17 0.0
05 16:15 SE 22 16.09 Fair CLR 25 14 51% 26 76.2 0.0
05 15:35 E 22 16.09 Fair CLR 26 13 45% 26 76.25 0.0
05 15:15 SE 22 16.09 Fair CLR 25 12 44% 26 76.25 0.0
05 14:55 SE 20 16.09 Fair CLR 25 12 44% 26 76.28 0.0
05 14:35 SE 24 G 33 16.09 Fair CLR 25 13 47% 26 76.28 0.0
05 14:15 SE 20 16.09 Fair CLR 26 13 45% 26 76.28 0.0
05 13:55 SE 20 16.09 Fair CLR 25 14 51% 26 76.3 0.0
05 13:35 SE 24 16.09 Fair CLR 25 14 51% 26 76.28 0.0
05 13:15 SE 19 16.09 Fair CLR 26 14 48% 26 76.3 0.0
05 12:55 SE 19 16.09 Fair CLR 25 13 47% 26 76.33 0.0
05 12:35 SE 17 16.09 Fair CLR 25 14 51% 26 76.33 0.0
05 12:15 SE 15 16.09 Fair CLR 25 14 51% 26 76.33 0.0
05 11:55 SE 17 16.09 Fair CLR 25 14 51% 26 76.33 0.0
05 11:35 SE 19 16.09 Fair CLR 25 14 51% 26 76.33 0.0
05 11:15 SE 15 16.09 Fair CLR 24 13 50% 25 76.33 0.0
05 10:55 SE 17 16.09 Fair CLR 24 13 50% 25 76.33 0.0
05 10:35 SE 13 16.09 Fair CLR 24 13 50% 25 76.33 0.0
05 10:15 SE 15 16.09 Fair CLR 24 13 50% 25 76.3 0.0
05 09:55 Vrbl 11 16.09 Fair CLR 24 14 54% 25 76.3 0.0
05 09:35 SE 15 16.09 Fair CLR 24 14 54% 25 76.3 0.0
05 09:15 SE 15 16.09 Fair CLR 24 14 54% 25 76.3 0.0
05 08:55 SE 15 16.09 Fair CLR 24 14 54% 25 76.28 0.0
05 08:35 SE 11 16.09 Fair CLR 23 14 57% 76.28 0.0
05 08:15 S 9 16.09 Fair CLR 22 14 61% 76.25 0.0
05 07:55 Calm 16.09 Fair CLR 20 16 78% 76.25 0.0
05 07:35 Calm 16.09 Fair CLR 18 15 83% 76.25 0.0
05 07:15 Calm 16.09 Fair CLR 17 14 83% 76.23 0.0
05 06:55 Calm 16.09 Fair CLR 17 14 83% 76.23 0.0
05 06:35 Calm 16.09 Fair CLR 17 14 83% 76.23 0.0
05 06:15 SE 6 16.09 Fair CLR 18 14 78% 76.23 0.0
05 05:55 Calm 16.09 Fair CLR 18 14 78% 76.17 0.0
05 05:35 Calm 16.09 Fair CLR 18 14 78% 76.17 0.0
05 05:15 Calm 16.09 Fair CLR 19 13 68% 76.17 0.0
05 04:55 S 7 16.09 Fair CLR 20 13 64% 76.17 0.0
05 04:35 S 6 16.09 Fair CLR 21 12 57% 76.15 0.0
05 04:10 S 7 16.09 Fair CLR 21 12 57% 76.15 0.0
05 04:00 S 9 16.09 Fair CLR 21 12 57% 76.15 0.0
05 03:35 S 13 16.09 Fair CLR 21 12 57% 76.15 0.0
05 03:15 S 13 16.09 Fair CLR 21 11 53% 76.17 0.0
05 02:55 SE 13 16.09 Fair CLR 21 11 53% 76.17 0.0
05 02:35 S 15 16.09 Fair CLR 21 11 53% 76.2 0.0
05 02:15 S 11 16.09 Fair CLR 21 11 53% 76.23 0.0
05 01:55 SE 20 16.09 Fair CLR 21 11 53% 76.23 0.0
05 01:35 SE 19 G 28 16.09 Fair CLR 21 11 53% 76.23 0.0
05 01:15 SE 19 16.09 Fair CLR 21 11 53% 76.25 0.0
05 00:55 SE 20 16.09 Fair CLR 21 11 53% 76.28 0.0
05 00:30 SE 19 16.09 Fair CLR 21 10 50% 76.28 0.0
05 00:15 SE 19 16.09 Fair CLR 21 11 53% 76.28 0.0
04 23:55 SE 17 16.09 Fair CLR 21 11 53% 76.3 0.0
04 23:35 SE 22 16.09 Fair CLR 21 11 53% 76.28 0.0
04 23:15 SE 22 16.09 Fair CLR 21 11 53% 76.28 0.0
04 22:55 SE 24 G 33 16.09 Fair CLR 21 12 57% 76.28 0.0
04 22:35 SE 22 16.09 Fair CLR 21 12 57% 76.25 0.0
04 22:15 SE 17 G 26 16.09 Fair CLR 21 11 53% 76.28 0.0
04 21:55 SE 17 16.09 Fair CLR 21 11 53% 76.25 0.0
04 21:35 SE 17 G 26 16.09 Fair CLR 21 11 53% 76.28 0.0
04 21:15 SE 19 16.09 Fair CLR 21 11 53% 76.25 0.0
04 20:55 SE 15 16.09 Fair CLR 21 12 57% 76.25 0.0
04 20:35 SE 15 16.09 Fair CLR 21 12 57% 76.25 0.0
04 20:15 SE 11 16.09 Fair CLR 21 11 53% 76.25 0.0
04 19:55 SE 13 16.09 Fair CLR 22 11 50% 76.25 0.0
04 19:35 E 11 16.09 Fair CLR 22 10 47% 76.23 0.0
04 19:15 E 17 16.09 Fair CLR 23 10 44% 76.23 0.0
04 18:55 E 17 16.09 Fair CLR 23 9 41% 76.23 0.0
04 18:35 SE 17 16.09 Fair CLR 23 9 41% 76.25 0.0
04 18:15 E 15 16.09 Fair CLR 23 8 38% 76.25 0.0
04 17:55 SE 17 16.09 Fair CLR 23 8 38% 76.25 0.0
04 17:35 SE 19 16.09 Fair CLR 24 7 34% 25 76.25 0.0
04 17:15 E 19 16.09 Fair CLR 24 7 34% 25 76.25 0.0
04 16:55 E 19 16.09 Fair CLR 23 6 33% 76.25 0.0
04 16:35 SE 17 16.09 Fair CLR 24 5 29% 25 76.25 0.0
04 16:15 E 15 G 24 16.09 Fair CLR 24 5 29% 25 76.25 0.0
04 15:55 E 19 16.09 Fair CLR 24 5 29% 25 76.28 0.0
04 15:35 E 19 16.09 Fair CLR 24 5 29% 25 76.3 0.0
04 15:15 SE 19 16.09 Fair CLR 25 5 28% 25 76.33 0.0
04 14:55 SE 20 16.09 Fair CLR 24 4 27% 25 76.33 0.0
04 14:35 SE 19 G 28 16.09 Fair CLR 25 4 26% 25 76.35 0.0
04 14:15 E 20 16.09 Fair CLR 25 4 26% 25 76.35 0.0
04 13:55 SE 19 16.09 Fair CLR 24 4 27% 25 76.35 0.0
04 13:35 E 19 G 28 16.09 Fair CLR 24 4 27% 25 76.35 0.0
04 13:15 E 17 16.09 Fair CLR 24 5 29% 25 76.35 0.0
04 12:55 SE 20 16.09 Fair CLR 24 4 27% 25 76.38 0.0
04 12:35 SE 15 16.09 Fair CLR 24 6 31% 25 76.4 0.0
04 12:15 E 19 16.09 Fair CLR 24 6 31% 25 76.38 0.0
04 11:55 SE 15 16.09 Fair CLR 24 6 31% 25 76.4 0.0
04 11:35 SE 15 16.09 Fair CLR 24 6 31% 25 76.4 0.0
04 11:15 S 15 16.09 A Few Clouds FEW055 23 6 33% 76.4 0.0
04 10:55 S 11 16.09 Partly Cloudy SCT055 23 6 33% 76.4 0.0
04 10:35 S 13 16.09 A Few Clouds FEW050 FEW055 23 6 33% 76.4 0.0
04 10:15 Calm 16.09 Fair CLR 22 7 38% 76.4 0.0
04 09:55 Calm 16.09 Fair CLR 22 9 44% 76.4 0.0
04 09:35 NW 6 16.09 Fair CLR 22 11 50% 76.4 0.0
04 09:15 Calm 16.09 Fair CLR 21 13 60% 76.4 0.0
04 08:55 Calm 16.09 Fair CLR 20 15 73% 76.4 0.0
04 08:35 Calm 16.09 Fair CLR 19 15 78% 76.38 0.0
04 08:15 Calm 16.09 Fair CLR 18 15 83% 76.38 0.0
04 07:55 Calm 16.09 Fair CLR 16 15 94% 76.35 0.0
04 07:35 N 7 16.09 Fair CLR 15 14 94% 76.35 0.0
04 07:15 Calm 14.48 Fair CLR 13 13 100% 76.35 0.0
04 06:55 Calm 8.05 Fog/Mist CLR 14 13 94% 76.33 0.0
04 06:35 Calm 14.48 Fair CLR 13 13 100% 76.33 0.0
04 06:15 Calm 14.48 Fair CLR 13 13 100% 76.3 0.0
04 05:55 N 6 4.83 Fog/Mist CLR 14 13 94% 76.3 0.0
04 05:15 Calm 16.09 Fair CLR 14 13 94% 76.33 0.0
04 04:55 Calm 16.09 Fair CLR 14 13 94% 76.33 0.0
04 04:35 Calm 16.09 Fair CLR 15 13 88% 76.33 0.0
04 04:15 Calm 16.09 Fair CLR 14 12 88% 76.35 0.0
04 03:55 Calm 16.09 Fair CLR 15 12 82% 76.35 0.0
04 03:35 Calm 16.09 Fair CLR 15 12 82% 76.33 0.0
04 03:15 NW 6 16.09 Fair CLR 15 12 82% 76.35 0.0
04 02:55 Calm 16.09 Fair CLR 16 12 77% 76.35 0.0
04 02:35 Calm 16.09 Fair CLR 17 12 73% 76.38 0.0
04 02:15 Calm 16.09 Fair CLR 20 10 53% 76.38 0.0
04 01:55 S 7 16.09 Fair CLR 20 11 56% 76.38 0.0
04 01:35 S 7 16.09 Fair CLR 20 11 56% 76.38 0.0
04 01:15 S 9 16.09 Fair CLR 20 12 60% 76.4 0.0
04 00:55 S 11 16.09 Fair CLR 20 11 56% 76.4 0.0
04 00:35 SE 11 16.09 Fair CLR 20 12 60% 76.4 0.0
04 00:15 S 11 16.09 Fair CLR 20 12 60% 76.4 0.0
03 23:55 SE 11 16.09 Fair CLR 20 11 56% 76.4 0.0
03 23:35 SE 11 16.09 Fair CLR 20 11 56% 76.4 0.0
03 23:15 SE 9 16.09 Fair CLR 20 11 56% 76.43 0.0
03 22:55 SE 11 16.09 Fair CLR 19 10 56% 76.4 0.0
03 22:35 SE 9 16.09 Fair CLR 19 10 56% 76.4 0.0
03 22:15 SE 9 16.09 Fair CLR 19 10 56% 76.4 0.0
03 21:55 SE 13 16.09 Fair CLR 19 10 56% 76.38 0.0
03 21:35 SE 13 16.09 Fair CLR 20 9 49% 76.35 0.0
03 21:15 SE 13 16.09 A Few Clouds FEW060 19 9 52% 76.35 0.0
03 20:55 SE 13 16.09 Fair CLR 20 10 53% 76.35 0.0
03 20:35 SE 17 16.09 Fair CLR 20 9 49% 76.33 0.0
03 20:15 SE 15 16.09 Fair CLR 20 9 49% 76.33 0.0
03 19:55 SE 15 16.09 Fair CLR 20 9 49% 76.33 0.0
03 19:35 SE 15 16.09 Fair CLR 20 9 49% 76.3 0.0
03 19:15 SE 19 16.09 Fair CLR 21 9 46% 76.33 0.0
03 18:55 SE 15 16.09 Fair CLR 21 8 43% 76.33 0.0
03 18:35 E 17 16.09 Fair CLR 21 8 43% 76.33 0.0
03 18:15 SE 17 16.09 Fair CLR 20 9 49% 76.33 0.0
03 17:55 SE 17 16.09 Fair CLR 21 9 46% 76.33 0.0
03 17:35 E 19 16.09 Fair CLR 21 10 50% 76.33 0.0
03 17:15 E 15 16.09 Fair CLR 21 9 46% 76.33 0.0
03 16:55 E 20 16.09 Fair CLR 21 10 50% 76.33 0.0
03 16:35 E 20 16.09 Fair CLR 21 9 46% 76.33 0.0
03 16:15 SE 20 16.09 Fair CLR 21 10 50% 76.35 0.0
03 15:55 E 17 16.09 Fair CLR 21 9 46% 76.38 0.0
03 15:35 SE 15 G 28 16.09 Fair CLR 21 10 50% 76.38 0.0
03 15:15 SE 19 16.09 Fair CLR 21 10 50% 76.43 0.0
03 14:35 E 19 16.09 Fair CLR 21 11 53% 76.45 0.0
03 14:15 NE 17 16.09 Fair CLR 21 11 53% 76.45 0.0
03 13:55 E 15 16.09 Fair CLR 21 11 53% 76.48 0.0
03 13:35 NE 13 16.09 Fair CLR 21 11 53% 76.48 0.0
03 13:15 E 17 16.09 Fair CLR 20 12 60% 76.48 0.0
03 12:55 E 13 G 24 16.09 Fair CLR 20 11 56% 76.53 0.0
03 12:35 E 15 G 26 16.09 Fair CLR 21 11 53% 76.53 0.0
03 12:15 NE 15 G 26 16.09 Fair CLR 21 11 53% 76.53 0.0
03 11:55 NE 13 G 24 16.09 Fair CLR 21 12 57% 76.5 0.0
03 11:35 E 19 16.09 A Few Clouds FEW024 20 12 60% 76.5 0.0
03 11:15 E 19 16.09 Mostly Cloudy BKN023 20 13 64% 76.5 0.0
03 10:55 NE 15 16.09 Partly Cloudy SCT021 20 13 64% 76.5 0.0
03 10:35 NE 13 16.09 A Few Clouds FEW020 19 13 68% 76.48 0.0
03 10:15 N 13 16.09 A Few Clouds FEW019 18 13 73% 76.48 0.0
03 09:55 N 15 16.09 Fair CLR 18 13 73% 76.45 0.0
03 09:35 N 9 G 20 16.09 Fair CLR 17 13 77% 76.48 0.0
03 09:15 N 11 16.09 Fair CLR 16 13 83% 76.45 0.0
03 08:35 N 9 16.09 Fair CLR 15 13 88% 76.43 0.0
03 08:15 N 7 16.09 Fair CLR 14 13 94% 76.4 0.0
03 07:55 N 11 16.09 A Few Clouds FEW003 14 13 94% 76.4 0.0
03 07:35 N 7 16.09 Partly Cloudy SCT003 13 13 100% 76.38 0.0
03 07:15 N 13 16.09 A Few Clouds FEW003 13 12 94% 76.38 0.0
03 06:55 N 9 16.09 Mostly Cloudy BKN003 13 12 94% 76.35 0.0
03 06:35 N 9 16.09 Mostly Cloudy BKN003 13 12 94% 76.35 0.0
03 06:15 N 9 16.09 Mostly Cloudy BKN004 13 12 94% 76.33 0.0
03 05:55 N 11 16.09 A Few Clouds FEW006 13 12 94% 76.3 0.0
03 05:35 N 11 16.09 Fair CLR 13 12 94% 76.28 0.0
03 05:15 N 13 16.09 Fair CLR 13 12 94% 76.28 0.0
03 04:50 NW 13 16.09 Fair CLR 13 13 100% 76.25 0.0
03 04:35 NW 7 16.09 Fair CLR 13 13 100% 76.25 0.0
03 04:15 NW 7 16.09 A Few Clouds FEW034 14 13 94% 76.25 0.0
03 03:55 NW 11 16.09 A Few Clouds FEW033 14 13 94% 76.25 0.0
03 03:35 NW 9 16.09 Partly Cloudy SCT038 14 13 94% 76.23 0.0
03 03:15 NW 9 16.09 Partly Cloudy SCT039 14 13 94% 76.23 0.0
03 02:55 NW 9 16.09 Partly Cloudy SCT042 15 13 88% 76.23 0.0
03 02:35 N 11 16.09 Mostly Cloudy BKN044 BKN055 15 14 94% 76.2 0.0
03 02:15 N 9 16.09 Mostly Cloudy FEW006 BKN046 BKN055 15 14 94% 76.2 0.0
03 01:55 N 11 16.09 Mostly Cloudy BKN047 BKN055 15 14 94% 76.2 0.0
03 01:35 NW 6 16.09 A Few Clouds FEW046 14 13 94% 76.2 0.0
Date Time (edt) Wind (kph) Vis. (km) Weather Sky Cond. Air Dwpt Max. Min. Relative Humidity Wind Chill (°C) Heat Index (°C) altimeter (cm) sea level (mb) 1 hr 3 hr 6 hr
6 hour
Temperature (ºC) Pressure Precipitation (cm)